Tracking 32577 objects as of 14-Dec-2025
HD Live streaming from Space Station
objects crossing your sky now

STARLINK-31166

Track STARLINK-31166 now!
10-day predictions
STARLINK-31166 is classified as:


NORAD ID: 58789
Int'l Code: 2024-012C
Perigee: 489.7 km
Apogee: 490.7 km
Inclination: 43.0 °
Period: 94.3 minutes
Semi major axis: 6861 km
RCS: Unknown
Launch date: January 15, 2024
Source: United States (US)
Launch site: AIR FORCE EASTERN TEST RANGE (AFETR)
Your satellite tracking list
Your tracking list is empty




NASA's NSSDC Master Catalog

Two Line Element Set (TLE):
1 58789U 24012C   25347.87631421  .00004138  00000-0  15982-3 0  9993
2 58789  43.0023 289.7251 0000764 212.2309 147.8496 15.27578745108112
Source of the keplerian elements: AFSPC